Tracking 19794 objects as of 22-Jul-2019
HD Live streaming from Space Station
objects crossing your sky now

FENGYUN 1C DEB

Track FENGYUN 1C DEB now!
10-day predictions


NORAD ID: 31012
Int'l Code: 1999-025BDE
Perigee: 751.6 km
Apogee: 874.2 km
Inclination: 99.0 °
Period: 101.0 minutes
Semi major axis: 7183 km
RCS: 0.0146 m2 (small)
Launch date: May 10, 1999
Source: People's Republic of China (PRC)
Launch site: Taiyaun Space Center, China (TSC)

Note: This is SATELLITE DEBRIS
aabbcc
Your satellite tracking list
Your tracking list is empty




NASA's NSSDC Master Catalog

Two Line Element Set (TLE):
1 31012U 99025BDE 19202.94197637 +.00000014 +00000-0 +24601-4 0  9994
2 31012 099.0404 357.0941 0085345 147.7303 343.9548 14.25822097644475
Source of the keplerian elements: AFSPC